TimeEDT,TemperatureF,Dew PointF,Humidity,Sea Level PressureIn,VisibilityMPH,Wind Direction,Wind SpeedMPH,Gust SpeedMPH,PrecipitationIn,Events,Conditions,WindDirDegrees,DateUTC
12:16 AM,36.0,29.3,77,30.13,10.0,West,11.5,-,N/A,Snow,Light Snow,270,2013-03-28 04:16:00
12:36 AM,34.7,30.7,85,30.14,4.0,West,11.5,-,N/A,Snow,Light Snow,280,2013-03-28 04:36:00
12:56 AM,34.2,31.6,90,30.13,7.0,West,10.4,-,N/A,Snow,Light Snow,270,2013-03-28 04:56:00
1:16 AM,34.2,31.8,91,30.13,5.0,West,10.4,-,N/A,Snow,Light Snow,260,2013-03-28 05:16:00
1:36 AM,34.2,32.0,92,30.13,10.0,West,9.2,-,N/A,Snow,Light Snow,270,2013-03-28 05:36:00
1:56 AM,34.0,32.0,92,30.13,10.0,West,8.1,-,0.01,,Overcast,270,2013-03-28 05:56:00
2:16 AM,34.3,30.6,86,30.13,10.0,WNW,8.1,-,N/A,Snow,Light Snow,290,2013-03-28 06:16:00
2:36 AM,35.1,28.4,77,30.14,10.0,WNW,9.2,18.4,N/A,,Overcast,300,2013-03-28 06:36:00
2:57 AM,34.7,28.0,77,30.14,10.0,WNW,8.1,-,N/A,Snow,Light Snow,300,2013-03-28 06:57:00
3:16 AM,34.0,29.1,82,30.14,3.0,WNW,10.4,-,N/A,Snow,Light Snow,290,2013-03-28 07:16:00
3:36 AM,33.3,30.0,88,30.13,5.0,West,10.4,-,N/A,Snow,Light Snow,280,2013-03-28 07:36:00
3:56 AM,33.1,30.6,90,30.13,10.0,WNW,6.9,-,N/A,Snow,Light Snow,290,2013-03-28 07:56:00
4:16 AM,32.9,30.7,92,30.13,5.0,WNW,6.9,-,N/A,Snow,Light Snow,290,2013-03-28 08:16:00
4:36 AM,32.4,32.0,99,30.14,4.0,WNW,5.8,-,N/A,Snow,Light Snow,290,2013-03-28 08:36:00
4:56 AM,32.4,32.5,100,30.14,5.0,West,6.9,-,N/A,Snow,Light Snow,280,2013-03-28 08:56:00
5:16 AM,32.4,32.5,100,30.14,7.0,West,6.9,-,N/A,Snow,Light Snow,280,2013-03-28 09:16:00
5:36 AM,32.4,32.4,100,30.14,7.0,West,6.9,-,N/A,Snow,Light Snow,270,2013-03-28 09:36:00
5:57 AM,32.4,32.4,100,30.14,10.0,West,6.9,-,N/A,,Overcast,280,2013-03-28 09:57:00
6:16 AM,32.5,31.8,97,30.15,10.0,WNW,5.8,-,N/A,Snow,Light Snow,290,2013-03-28 10:16:00
6:36 AM,32.7,29.3,87,30.15,10.0,WNW,4.6,-,N/A,,Overcast,290,2013-03-28 10:36:00
6:56 AM,32.9,28.8,85,30.15,10.0,West,6.9,-,N/A,,Overcast,270,2013-03-28 10:56:00
7:16 AM,33.1,28.2,82,30.16,10.0,West,6.9,-,N/A,,Overcast,280,2013-03-28 11:16:00
7:36 AM,33.1,27.7,81,30.17,10.0,WNW,9.2,-,N/A,,Overcast,290,2013-03-28 11:36:00
7:56 AM,33.3,27.5,79,30.18,10.0,WNW,8.1,-,N/A,,Overcast,290,2013-03-28 11:56:00
8:16 AM,33.4,27.1,78,30.18,10.0,WNW,8.1,-,N/A,,Overcast,290,2013-03-28 12:16:00
8:36 AM,33.8,27.1,77,30.18,10.0,West,9.2,-,N/A,,Overcast,280,2013-03-28 12:36:00
8:56 AM,33.8,26.8,75,30.19,10.0,WNW,8.1,-,N/A,,Overcast,290,2013-03-28 12:56:00
9:16 AM,33.8,26.6,75,30.19,10.0,West,9.2,-,N/A,,Overcast,280,2013-03-28 13:16:00
9:36 AM,34.3,27.0,74,30.19,10.0,WNW,6.9,-,N/A,,Overcast,290,2013-03-28 13:36:00
9:56 AM,34.3,26.4,73,30.20,10.0,WNW,9.2,16.1,N/A,,Overcast,290,2013-03-28 13:56:00
10:16 AM,34.7,26.4,72,30.20,10.0,WNW,10.4,-,N/A,,Overcast,290,2013-03-28 14:16:00
10:36 AM,35.1,27.0,72,30.21,10.0,West,12.7,-,N/A,,Overcast,280,2013-03-28 14:36:00
10:56 AM,34.9,26.8,72,30.21,10.0,WNW,12.7,18.4,N/A,,Overcast,290,2013-03-28 14:56:00
11:16 AM,35.4,26.8,71,30.22,10.0,WNW,8.1,-,N/A,,Overcast,290,2013-03-28 15:16:00
11:34 AM,35.8,27.7,72,30.22,10.0,WNW,8.1,-,N/A,,Overcast,300,2013-03-28 15:34:00
11:57 AM,36.0,27.3,71,30.22,10.0,WNW,8.1,-,N/A,,Overcast,300,2013-03-28 15:57:00
12:16 PM,35.8,27.3,71,30.23,10.0,West,9.2,-,N/A,,Overcast,280,2013-03-28 16:16:00
12:36 PM,35.8,27.5,72,30.23,10.0,WNW,8.1,-,N/A,,Overcast,290,2013-03-28 16:36:00
12:57 PM,36.1,28.0,72,30.23,10.0,WNW,8.1,-,N/A,,Overcast,290,2013-03-28 16:57:00
1:16 PM,37.4,28.2,69,30.22,10.0,West,9.2,-,N/A,,Overcast,260,2013-03-28 17:16:00
1:36 PM,38.5,28.9,69,30.22,10.0,WNW,10.4,-,N/A,,Overcast,300,2013-03-28 17:36:00
1:56 PM,40.5,30.2,67,30.22,10.0,WNW,9.2,-,N/A,,Overcast,300,2013-03-28 17:56:00
2:16 PM,40.3,28.9,64,30.22,10.0,WNW,11.5,-,N/A,,Overcast,300,2013-03-28 18:16:00
2:36 PM,39.9,28.6,64,30.22,10.0,WNW,10.4,17.3,N/A,,Overcast,300,2013-03-28 18:36:00
2:56 PM,40.3,28.6,63,30.22,10.0,NW,10.4,18.4,N/A,,Overcast,320,2013-03-28 18:56:00
3:16 PM,41.5,28.8,60,30.21,10.0,West,9.2,-,N/A,,Overcast,280,2013-03-28 19:16:00
3:36 PM,41.4,28.8,61,30.21,10.0,WNW,5.8,-,N/A,,Overcast,300,2013-03-28 19:36:00
3:57 PM,42.1,28.0,58,30.21,10.0,WNW,9.2,-,N/A,,Overcast,290,2013-03-28 19:57:00
4:16 PM,42.6,28.9,58,30.21,10.0,WNW,8.1,-,N/A,,Overcast,300,2013-03-28 20:16:00
4:36 PM,41.9,27.9,58,30.21,10.0,NW,8.1,-,N/A,,Overcast,310,2013-03-28 20:36:00
4:56 PM,42.1,28.9,60,30.21,10.0,NNW,8.1,-,N/A,,Overcast,330,2013-03-28 20:56:00
5:16 PM,41.9,28.6,59,30.21,10.0,WNW,9.2,-,N/A,,Overcast,290,2013-03-28 21:16:00
5:36 PM,41.4,28.2,60,30.21,10.0,NW,5.8,-,N/A,,Overcast,320,2013-03-28 21:36:00
5:57 PM,41.0,28.0,60,30.22,10.0,NW,6.9,-,N/A,,Overcast,310,2013-03-28 21:57:00
6:16 PM,41.0,27.9,60,30.22,10.0,West,9.2,-,N/A,,Overcast,280,2013-03-28 22:16:00
6:36 PM,40.6,27.7,60,30.22,10.0,WNW,9.2,-,N/A,,Overcast,300,2013-03-28 22:36:00
6:57 PM,40.3,28.2,62,30.23,10.0,NW,5.8,-,N/A,,Overcast,310,2013-03-28 22:57:00
7:16 PM,40.1,27.9,62,30.23,10.0,NW,4.6,-,N/A,,Overcast,310,2013-03-28 23:16:00
7:36 PM,39.6,27.7,62,30.23,10.0,NW,3.5,-,N/A,,Overcast,320,2013-03-28 23:36:00
7:57 PM,38.8,28.0,65,30.23,10.0,NNW,4.6,-,N/A,,Overcast,330,2013-03-28 23:57:00
8:17 PM,38.5,28.2,67,30.24,10.0,Calm,Calm,-,N/A,,Overcast,0,2013-03-29 00:17:00
8:36 PM,38.8,27.5,64,30.24,10.0,Calm,Calm,-,N/A,,Overcast,0,2013-03-29 00:36:00
8:56 PM,37.8,28.4,69,30.24,10.0,Calm,Calm,-,N/A,,Overcast,0,2013-03-29 00:56:00
9:16 PM,37.4,28.2,69,30.24,10.0,Calm,Calm,-,N/A,,Overcast,0,2013-03-29 01:16:00
9:36 PM,37.2,29.3,73,30.24,10.0,Calm,Calm,-,N/A,,Overcast,0,2013-03-29 01:36:00
9:56 PM,36.7,29.3,75,30.25,10.0,Calm,Calm,-,N/A,,Overcast,0,2013-03-29 01:56:00
10:16 PM,36.5,29.3,75,30.25,10.0,Calm,Calm,-,N/A,,Overcast,0,2013-03-29 02:16:00
10:36 PM,36.0,30.4,80,30.25,10.0,Calm,Calm,-,N/A,,Overcast,0,2013-03-29 02:36:00
10:57 PM,35.8,30.4,81,30.25,10.0,Calm,Calm,-,N/A,,Overcast,0,2013-03-29 02:57:00
11:16 PM,36.9,29.3,74,30.24,10.0,Calm,Calm,-,N/A,,Overcast,0,2013-03-29 03:16:00
11:36 PM,36.9,30.0,76,30.24,10.0,Calm,Calm,-,N/A,,Overcast,0,2013-03-29 03:36:00
11:57 PM,35.8,31.1,83,30.25,10.0,Calm,Calm,-,N/A,,Overcast,0,2013-03-29 03:57:00